weather.gov     
National Weather Service

Regional Weather Roundup
NWS Homepage
This page is being discontinued on March 12, 2014.
The same data is available at this site. Please update your bookmarks.
Thank you, and we apologize for the inconvenience.
Please send an email to SR-SRH.Webmaster@noaa.gov with any concerns.


Current Version
Previous Version:    01  02  03  04  05  06  07  08  09  10  11  12  13  14  15  16  17  18  19  20  21  22  23  24  25  26  27  
[Printable]
213
ASUS44 KBMX 280410
RWRAL

ALABAMA REGIONAL WEATHER ROUNDUP
NATIONAL WEATHER SERVICE BIRMINGHAM AL
1100 PM CDT SUN JUL 27 2014

NOTE: "FAIR" INDICATES FEW OR NO CLOUDS BELOW 12,000 FEET
WITH NO SIGNIFICANT WEATHER AND/OR OBSTRUCTIONS TO VISIBILITY.

THE REMARK "TC" DENOTES TEMPERATURE IN DEGREES CELSIUS.

ALZ001>011-014-016>018-020-280500-
NORTH ALABAMA

CITY           SKY/WX    TMP DP  RH WIND       PRES   REMARKS
MUSCLE SHOALS  MOCLDY    83  75  77 W12       29.96S HX  90
HUNTSVILLE     MOCLDY    82  74  76 SW6       29.95F
DECATUR        MOCLDY    83  75  77 SW10G18   29.95F HX  90
HALEYVILLE     MOCLDY    80  76  87 W6        30.01S
GADSDEN        PTCLDY    79  72  78 W6        29.96S
$$

ALZ012-013-022-023-030>036-040>044-280500-
WEST CENTRAL ALABAMA

CITY           SKY/WX    TMP DP  RH WIND       PRES   REMARKS
TUSCALOOSA     MOCLDY    81  74  79 W3        29.98S
$$

ALZ015-024>027-033>036-040>044-280500-
CENTRAL ALABAMA

CITY           SKY/WX    TMP DP  RH WIND       PRES   REMARKS
BIRMINGHAM     PTCLDY    85  72  65 W13       30.00F HX  91
MONTGOMERY     CLEAR     83  74  74 SW6       29.99S
SHELBY CO ARPT MOCLDY    80  74  81 S3        29.99F
MAXWELL AFB    CLEAR     82  75  78 SW3       29.98F
GREENVILLE     FAIR      81  74  79 SW3       30.01F
$$

ALZ019-021-028-029-037-038-045>048-280500-
EAST CENTRAL ALABAMA

CITY           SKY/WX    TMP DP  RH WIND       PRES   REMARKS
ANNISTON       CLEAR     79  72  79 W5        29.97F
ALEXANDER CITY PTCLDY    81  73  77 CALM      30.01S
AUBURN         CLEAR     81  72  74 SW10      30.03F
$$

ALZ051>064-280500-
SOUTHWEST ALABAMA

CITY           SKY/WX    TMP DP  RH WIND       PRES   REMARKS
MOBILE         PTCLDY    80  78  94 SW8       30.05S
BROOKLEY FIELD CLEAR     82  78  88 SW6       30.05S HX  91
EVERGREEN      CLEAR     83  77  82 SW6       30.02F HX  92
$$

ALZ049-050-065>069-280500-
SOUTHEAST ALABAMA

CITY           SKY/WX    TMP DP  RH WIND       PRES   REMARKS
DOTHAN         PTCLDY    81  76  84 SW8       30.05F
OZARK          PTCLDY    80  77  91 SW6       30.01F
TROY           CLEAR     79  76  90 CALM      30.01F
EUFAULA        FAIR      82  75  79 SW5       29.98F
$$




U.S. Dept. of Commerce
NOAA National Weather Service
1325 East West Highway
Silver Spring, MD 20910
E-mail: w-nws.webmaster@noaa.gov
Page last modified: May 16, 2007
NATIONAL WEATHER SERVICE: for Safety, for Work, for Fun - FOR LIFE